Current weather by "City, St" or "zip code"  
 

Current Conditions: Fort Campbell U. S. Army Airfield, KY

Fair


40.0 F

Last Updated on Oct 31 2020, 1:56 am CDT
Humidity: 93%
Wind Speed: N 0.0 mph
Barometer 30.31 in
Dewpoint: 37.9 F
Visibility: 10.00 mi
Precip: --
Heat Index: NA
Wind Chill: NA
Current conditions at:

Fort Campbell U. S. Army Airfield, KY (KHOP)

Lat: 36.66667 Lon: 87.5

Local Radar Image active severe weather and emergency alerts image image weather storm and storm spotter reports image weather observation monitoring service image
Local
Radar
Active
Alerts
Storm Reports Obs
Monitoring

Sign-up For Email & Text Message Weather Alert Notification Services



Advertise Here

Observation History for Fort Campbell U. S. Army Airfield, KY


Time Wind
(mph)
Vis
(mi)
Weather Precip (in) Temperature (F) Relative
Humidity
Wind
Chill
(F)
Heat
Index
(F)
Pressure
Air Dwpt altimeter
(in)
sea level
(mb)
Rmks
1:56 am CDT N 0.0 10.00 Fair -- 40.0 37.9 93% NA NA 30.31 1026.8
12:56 am CDT N 0.0 10.00 Fair -- 40.0 37.2 90% NA NA 30.31 1026.9
11:56 pm CDT NE 3.5 10.00 Fair -- 40.0 36.5 86% NA NA 30.32 1027.2
9:56 pm CDT N 0.0 10.00 Fair -- 43.0 36.1 77% NA NA 30.31 1026.9
8:56 pm CDT NE 4.6 10.00 Fair -- 43.0 36.9 80% 40 NA 30.29 1026.2
7:56 pm CDT NE 3.5 10.00 Fair -- 45.0 36.3 71% NA NA 30.29 1026.2
6:56 pm CDT N 0.0 10.00 Fair -- 47.0 35.6 64% NA NA 30.29 1026.2
5:56 pm CDT N 3.5 10.00 Fair -- 50.0 33.8 54% NA NA 30.27 1025.4
4:56 pm CDT N 5.8 7.00 Fair -- 53.0 33.1 47% 51 NA 30.27 1025.4
3:56 pm CDT N 3.5 10.00 Fair -- 53.0 33.1 46% NA NA 30.27 1025.4
2:56 pm CDT NW 4.6 10.00 Fair -- 53.0 33.6 47% 52 NA 30.27 1025.4
1:56 pm CDT N 8.1 1.88 Fair with Haze -- 53.0 34.0 49% 50 NA 30.27 1025.4
12:56 pm CDT N 5.8 10.00 Fair -- 51.0 34.0 52% 49 NA 30.29 1026.1
11:56 am CDT N 9.2 10.00 Fair -- 49.0 33.8 55% 45 NA 30.30 1026.4
10:56 am CDT N 9.2 10.00 Fair -- 48.0 34.9 61% 44 NA 30.31 1026.8
9:56 am CDT N 15.0 10.00 Fair -- 45.0 35.4 68% 38 NA 30.30 1026.5
8:56 am CDT N 9.2 10.00 Fair -- 42.0 40.1 92% 36 NA 30.29 1026.2
7:56 am CDT NW 4.6 10.00 Fair -- 39.0 39.4 100% 36 NA 30.24 1024.5
6:56 am CDT NW 4.6 10.00 A Few Clouds -- 40.0 39.6 100% 37 NA 30.20 1023.2
5:56 am CDT NW 9.2 10.00 Overcast -- 42.0 41.9 100% 36 NA 30.17 1022.0
4:56 am CDT NW 6.9 10.00 Overcast -- 42.0 42.1 100% 38 NA 30.14 1021.0
3:56 am CDT NW 6.9 10.00 Mostly Cloudy -- 43.0 42.8 100% 39 NA 30.11 1020.0
2:56 am CDT W 6.9 10.00 Fair -- 43.0 43.0 100% 39 NA 30.10 1019.6

Regional Weather Observation


Clarksville Outlaw Field, TN (KCKV)

Fair
38.0 F

Madisonville Municipal Airport, KY (K2I0)

Fog/Mist
38.0 F

Murray Kyle Oakley Field, KY, KY (KCEY)

Fair
39.0 F

Henderson City, KY (KEHR)

Fair
36.0 F

Owensboro, Owensboro-Daviess County Airport, KY (KOWB)

Fair
38.0 F

Paducah, Barkley Regional Airport, KY (KPAH)

Fair
37.0 F